TimePST,TemperatureF,Dew PointF,Humidity,Sea Level PressureIn,VisibilityMPH,Wind Direction,Wind SpeedMPH,Gust SpeedMPH,PrecipitationIn,Events,Conditions,WindDirDegrees,DateUTC
12:13 AM,35.6,33.8,93,30.15,10.0,Calm,Calm,-,N/A,,Overcast,0,2012-12-30 08:13:00
12:53 AM,35.1,33.1,92,30.17,7.0,Calm,Calm,-,N/A,,Overcast,0,2012-12-30 08:53:00
1:38 AM,35.6,33.8,93,30.15,8.0,Calm,Calm,-,N/A,,Overcast,0,2012-12-30 09:38:00
1:53 AM,33.1,30.9,92,30.18,8.0,Calm,Calm,-,N/A,,Overcast,0,2012-12-30 09:53:00
2:01 AM,33.8,30.2,87,30.15,7.0,Calm,Calm,-,N/A,,Overcast,0,2012-12-30 10:01:00
2:48 AM,30.2,30.2,100,30.16,8.0,Calm,Calm,-,N/A,,Mostly Cloudy,0,2012-12-30 10:48:00
2:53 AM,32.0,30.0,92,30.19,9.0,Calm,Calm,-,N/A,,Mostly Cloudy,0,2012-12-30 10:53:00
3:53 AM,34.0,32.0,92,30.19,5.0,Calm,Calm,-,N/A,,Overcast,0,2012-12-30 11:53:00
4:26 AM,33.8,33.8,100,30.16,5.0,Calm,Calm,-,N/A,,Overcast,0,2012-12-30 12:26:00
4:53 AM,34.0,33.1,96,30.18,6.0,Calm,Calm,-,N/A,,Overcast,0,2012-12-30 12:53:00
5:43 AM,35.6,33.8,93,30.15,6.0,Calm,Calm,-,N/A,,Overcast,0,2012-12-30 13:43:00
5:53 AM,35.1,33.1,92,30.18,6.0,Calm,Calm,-,N/A,,Overcast,0,2012-12-30 13:53:00
6:53 AM,35.1,33.1,92,30.21,4.0,Calm,Calm,-,N/A,,Overcast,0,2012-12-30 14:53:00
7:53 AM,35.1,33.1,92,30.22,6.0,Calm,Calm,-,N/A,,Overcast,0,2012-12-30 15:53:00
8:53 AM,36.0,34.0,93,30.24,6.0,Calm,Calm,-,N/A,,Mostly Cloudy,0,2012-12-30 16:53:00
9:53 AM,39.0,34.0,82,30.25,9.0,Calm,Calm,-,N/A,,Mostly Cloudy,0,2012-12-30 17:53:00
10:53 AM,39.0,32.0,76,30.26,10.0,Calm,Calm,-,N/A,,Mostly Cloudy,0,2012-12-30 18:53:00
11:53 AM,41.0,30.9,67,30.25,10.0,Calm,Calm,-,N/A,,Mostly Cloudy,0,2012-12-30 19:53:00
12:17 PM,41.0,30.2,65,30.22,10.0,Calm,Calm,-,0.01,,Partly Cloudy,0,2012-12-30 20:17:00
12:53 PM,43.0,30.9,62,30.24,10.0,NW,3.5,-,0.01,,Scattered Clouds,320,2012-12-30 20:53:00
1:53 PM,44.1,32.0,63,30.22,10.0,Variable,3.5,-,N/A,,Clear,0,2012-12-30 21:53:00
2:53 PM,44.1,30.9,60,30.22,10.0,West,3.5,-,N/A,,Clear,260,2012-12-30 22:53:00
3:53 PM,44.1,30.9,60,30.22,10.0,WNW,3.5,-,N/A,,Clear,300,2012-12-30 23:53:00
4:53 PM,41.0,32.0,70,30.23,10.0,WNW,3.5,-,N/A,,Clear,290,2012-12-31 00:53:00
5:53 PM,37.0,32.0,82,30.23,10.0,South,5.8,-,N/A,,Clear,180,2012-12-31 01:53:00
6:53 PM,36.0,30.9,82,30.24,10.0,Calm,Calm,-,N/A,,Clear,0,2012-12-31 02:53:00
7:53 PM,34.0,30.0,85,30.25,10.0,Calm,Calm,-,N/A,,Clear,0,2012-12-31 03:53:00
8:53 PM,32.0,28.9,88,30.26,10.0,Calm,Calm,-,N/A,,Clear,0,2012-12-31 04:53:00
9:53 PM,30.9,28.9,92,30.28,7.0,Calm,Calm,-,N/A,,Clear,0,2012-12-31 05:53:00
10:53 PM,28.9,27.0,92,30.30,5.0,WSW,3.5,-,N/A,,Clear,250,2012-12-31 06:53:00
11:53 PM,28.0,26.1,92,30.31,6.0,Calm,Calm,-,N/A,,Partly Cloudy,0,2012-12-31 07:53:00